Torna al catalogo

STARLINK-33567

AttivoComunicazioniVLEO
NORAD 62773·PAYLOAD·🇺🇸 United States

Lanciato Jan 21, 2025 da Vandenberg Space Force Base

Loading…

Prossimi Passaggi (prossime 24 ore)

TLE

AggiornatoSource: CelesTrak SupGP

Epoca: Sep 14, 2026, 22:50 UTC

1 62773C 25015R   26257.95187500 -.00014224  00000+0 -42074-3 0  2576
2 62773  53.1581 159.7141 0000533  89.7849 114.7551 15.34361741    14

Traccia STARLINK-33567 in tempo reale con AllMySat

Download on the App Store